K5SVV Weather Reports


Display with metric or nautical units.
time (UTC)temp
F
wind
direction
speed
MPH
gust
MPH
rain 1hr
in
rain 24hr
in
rain mn
in
humidity
%
barometer
mb
20260904135216 77 182 2.0 3.0 0.00 0.00 0.00 97 1014.2
20260904134711 77 166 2.0 3.0 0.00 0.00 0.00 97 1014.0
20260904134211 77 149 3.0 4.0 0.00 0.00 0.00 97 1014.1
20260904133705 77 138 3.0 4.0 0.00 0.00 0.00 97 1014.5
20260904133202 77 178 1.0 1.0 0.00 0.00 0.00 97 1014.2
20260904132701 76 174 1.0 1.0 0.00 0.00 0.00 97 1014.1
20260904132156 76 171 3.0 4.0 0.00 0.00 0.00 97 1014.0
20260904131655 76 131 1.0 3.0 0.00 0.00 0.00 97 1013.8
20260904131151 76 181 2.0 3.0 0.00 0.00 0.00 97 1013.8
20260904130651 76 167 4.0 4.0 0.00 0.00 0.00 97 1013.8
20260904130150 76 177 2.0 3.0 0.00 0.00 0.00 97 1013.6
20260904125647 75 182 1.0 2.0 0.00 0.00 0.00 97 1013.9
20260904125142 75 176 1.0 2.0 0.00 0.00 0.00 97 1013.8
20260904124637 75 176 0.0 1.0 0.00 0.00 0.00 97 1013.4
20260904124133 75 182 1.0 1.0 0.00 0.00 0.00 97 1013.5
20260904123633 75 185 2.0 2.0 0.00 0.00 0.00 97 1013.2
20260904123129 75 183 1.0 1.0 0.00 0.00 0.00 97 1013.4
20260904122623 75 177 1.0 1.0 0.00 0.00 0.00 97 1013.3
20260904122118 75 165 2.0 2.0 0.00 0.00 0.00 97 1013.4
20260904121614 75 162 2.0 3.0 0.00 0.00 0.00 97 1013.3
20260904121109 75 168 0.0 0.0 0.00 0.00 0.00 97 1013.4
20260904120605 75 170 2.0 2.0 0.00 0.00 0.00 97 1013.2
20260904120101 75 185 2.0 2.0 0.00 0.00 0.00 97 1013.1
20260904115555 75 170 1.0 2.0 0.00 0.00 0.00 97 1013.0
20260904115050 75 183 1.0 1.0 0.00 0.00 0.00 96 1013.2
20260904114545 75 183 0.0 0.0 0.00 0.00 0.00 96 1013.0
20260904114044 75 185 2.0 2.0 0.00 0.00 0.00 96 1013.3
20260904113538 75 178 3.0 3.0 0.00 0.00 0.00 96 1013.0
20260904113033 75 186 0.0 0.0 0.00 0.00 0.00 96 1013.0
20260904112528 75 164 0.0 1.0 0.00 0.00 0.00 96 1013.0
20260904112024 75 185 0.0 0.0 0.00 0.00 0.00 96 1012.8
20260904111520 75 186 0.0 0.0 0.00 0.00 0.00 96 1012.9
20260904111015 75 186 0.0 0.0 0.00 0.00 0.00 96 1012.9
20260904110514 75 185 0.0 0.0 0.00 0.00 0.00 96 1012.9
20260904110011 75 178 0.0 1.0 0.00 0.00 0.00 96 1012.9
20260904105504 75 185 1.0 1.0 0.00 0.00 0.00 96 1013.1
20260904104959 75 184 0.0 0.0 0.00 0.00 0.00 96 1013.0
20260904104454 75 174 0.0 0.0 0.00 0.00 0.00 96 1012.9
20260904103950 75 176 0.0 0.0 0.00 0.00 0.00 96 1013.0
20260904103446 75 176 0.0 0.0 0.00 0.00 0.00 95 1012.6
20260904102942 75 176 0.0 0.0 0.00 0.00 0.00 95 1012.5
20260904102437 75 176 0.0 0.0 0.00 0.00 0.00 95 1012.5
20260904101927 75 176 0.0 0.0 0.00 0.00 0.00 95 1012.5
20260904101424 75 176 0.0 0.0 0.00 0.00 0.00 95 1012.6
20260904100919 75 176 0.0 0.0 0.00 0.00 0.00 95 1012.5
20260904100415 75 177 0.0 0.0 0.00 0.00 0.00 95 1012.5
20260904095909 75 177 0.0 0.0 0.00 0.00 0.00 95 1012.5
20260904095404 75 176 0.0 0.0 0.00 0.00 0.00 95 1012.4
20260904094859 75 176 0.0 0.0 0.00 0.00 0.00 95 1012.4
20260904094354 75 186 0.0 0.0 0.00 0.00 0.00 95 1012.4
20260904093850 75 187 0.0 0.0 0.00 0.00 0.00 94 1012.3
20260904093350 75 171 0.0 0.0 0.00 0.00 0.00 94 1012.6
20260904092845 75 172 0.0 0.0 0.00 0.00 0.00 94 1012.2
20260904092342 75 168 0.0 0.0 0.00 0.00 0.00 94 1012.6
20260904091838 75 182 0.0 0.0 0.00 0.00 0.00 94 1012.5
20260904091333 75 185 0.0 0.0 0.00 0.00 0.00 94 1012.5
20260904090828 75 183 0.0 0.0 0.00 0.00 0.00 94 1012.6
20260904090324 76 182 0.0 0.0 0.00 0.00 0.00 94 1012.4
20260904085818 76 176 0.0 0.0 0.00 0.00 0.00 94 1012.5
20260904085313 76 186 1.0 1.0 0.00 0.00 0.00 94 1012.4
20260904084809 76 170 2.0 3.0 0.00 0.00 0.00 94 1012.5
20260904084304 76 153 0.0 0.0 0.00 0.00 0.00 94 1012.4
20260904083800 76 186 0.0 0.0 0.00 0.00 0.00 94 1012.4
20260904083256 76 184 1.0 1.0 0.00 0.00 0.00 94 1012.5
20260904082751 76 175 3.0 3.0 0.00 0.00 0.00 94 1012.6
20260904082246 76 180 1.0 2.0 0.00 0.00 0.00 93 1012.3
20260904081741 76 171 0.0 0.0 0.00 0.00 0.00 94 1012.5
20260904081236 76 172 0.0 0.0 0.00 0.00 0.00 93 1012.3
20260904080732 76 181 0.0 0.0 0.00 0.00 0.00 93 1012.5
20260904080222 76 172 0.0 0.0 0.00 0.00 0.00 93 1012.4
20260904075719 76 176 0.0 0.0 0.00 0.00 0.00 93 1012.5
20260904075213 76 186 0.0 0.0 0.00 0.00 0.00 93 1012.3
20260904074712 76 198 0.0 0.0 0.00 0.00 0.00 93 1012.4
20260904074207 76 185 0.0 0.0 0.00 0.00 0.00 93 1012.2
20260904073702 76 185 0.0 0.0 0.00 0.00 0.00 93 1012.6
20260904073158 76 187 0.0 0.0 0.00 0.00 0.00 93 1012.6
20260904072654 76 185 0.0 0.0 0.00 0.00 0.00 93 1012.5
20260904072148 76 185 0.0 0.0 0.00 0.00 0.00 93 1012.5
20260904071644 76 191 0.0 0.0 0.00 0.00 0.00 93 1012.3
20260904071139 76 192 1.0 1.0 0.00 0.00 0.00 93 1012.8
20260904070638 76 188 0.0 0.0 0.00 0.00 0.00 93 1012.9
20260904070133 76 180 0.0 0.0 0.00 0.00 0.00 93 1012.5
20260904065632 76 186 0.0 0.0 0.00 0.00 0.00 92 1012.9
20260904065130 76 183 0.0 0.0 0.00 0.00 0.00 92 1012.7
20260904064625 76 179 0.0 0.0 0.00 0.00 0.00 92 1012.6
20260904064125 76 167 0.0 0.0 0.00 0.00 0.00 92 1013.1
20260904063621 76 179 0.0 0.0 0.00 0.00 0.00 92 1012.8
20260904063116 77 165 0.0 0.0 0.00 0.00 0.00 92 1012.7
20260904062613 77 178 0.0 0.0 0.00 0.00 0.00 92 1012.8
20260904062108 77 173 0.0 0.0 0.00 0.00 0.00 91 1012.7
20260904061603 77 186 0.0 0.0 0.00 0.00 0.00 91 1012.4
20260904061059 77 179 0.0 1.0 0.00 0.00 0.00 91 1012.5
20260904060555 77 172 0.0 0.0 0.00 0.00 0.00 91 1012.6
20260904060051 77 185 0.0 0.0 0.00 0.00 0.00 91 1012.6
20260904055546 77 176 0.0 0.0 0.00 0.00 0.00 90 1012.8
20260904055041 77 156 0.0 0.0 0.00 0.00 0.00 90 1012.6
20260904054537 77 176 2.0 2.0 0.00 0.00 0.00 90 1012.8
20260904054033 77 187 3.0 3.0 0.00 0.00 0.00 90 1012.9
20260904053532 77 160 4.0 6.0 0.00 0.00 0.00 90 1012.7
20260904053028 77 176 2.0 2.0 0.00 0.00 0.00 89 1012.7
20260904052524 77 161 2.0 2.0 0.00 0.00 0.00 89 1012.5
20260904052020 77 178 0.0 0.0 0.00 0.00 0.00 89 1012.8
20260904051516 77 170 1.0 2.0 0.00 0.00 0.00 88 1012.6
20260904051015 77 168 2.0 3.0 0.00 0.00 0.00 88 1013.0
20260904050512 77 174 2.0 2.0 0.00 0.00 0.00 88 1012.8
20260904050007 77 177 1.0 2.0 0.00 0.00 0.00 87 1012.8
20260904045502 77 189 1.0 2.0 0.00 0.00 0.00 87 1012.6
20260904044956 77 163 4.0 4.0 0.00 0.00 0.00 87 1012.7
20260904044453 77 186 1.0 1.0 0.00 0.00 0.00 86 1012.6
20260904043949 77 179 3.0 3.0 0.00 0.00 0.00 86 1012.6
20260904043445 77 163 2.0 3.0 0.00 0.00 0.00 86 1012.7
20260904042941 77 174 2.0 3.0 0.00 0.00 0.00 86 1012.8
20260904042437 77 173 0.0 0.0 0.00 0.00 0.00 86 1012.8
20260904041931 78 136 3.0 7.0 0.00 0.00 0.00 85 1012.8
20260904041428 78 166 1.0 2.0 0.00 0.00 0.00 85 1012.8
20260904040924 78 175 4.0 6.0 0.00 0.00 0.00 84 1013.1
20260904040423 78 185 2.0 2.0 0.00 0.00 0.00 84 1013.0
20260904035920 78 162 1.0 2.0 0.00 0.00 0.00 84 1012.9
20260904035415 78 170 2.0 3.0 0.00 0.00 0.00 83 1013.0
20260904034914 78 191 1.0 2.0 0.00 0.00 0.00 83 1013.0
20260904034410 78 162 4.0 6.0 0.00 0.00 0.00 82 1013.0
20260904033905 78 130 2.0 3.0 0.00 0.00 0.00 81 1012.8
20260904033402 78 177 2.0 3.0 0.00 0.00 0.00 81 1013.1
20260904032857 78 178 2.0 2.0 0.00 0.00 0.00 80 1012.9
20260904032352 78 148 3.0 4.0 0.00 0.00 0.00 80 1012.8
20260904031846 78 161 1.0 2.0 0.00 0.00 0.00 79 1013.0
20260904031342 78 171 2.0 2.0 0.00 0.00 0.00 79 1012.8
20260904030838 78 171 1.0 2.0 0.00 0.00 0.00 78 1012.7
20260904030334 78 147 2.0 4.0 0.00 0.00 0.00 78 1012.9
20260904025829 78 164 2.0 2.0 0.00 0.00 0.00 78 1012.7
20260904025325 78 169 3.0 6.0 0.00 0.00 0.00 77 1012.6
20260904024824 79 145 3.0 6.0 0.00 0.00 0.00 77 1012.3
20260904024319 79 174 1.0 1.0 0.00 0.00 0.00 77 1012.5
20260904023816 79 181 0.0 0.0 0.00 0.00 0.00 77 1012.2
20260904023312 79 149 3.0 4.0 0.00 0.00 0.00 77 1012.3
20260904022811 79 187 2.0 2.0 0.00 0.00 0.00 77 1012.3
20260904022308 79 160 2.0 3.0 0.00 0.00 0.00 78 1012.1
20260904021805 79 136 4.0 7.0 0.00 0.00 0.00 78 1012.0
20260904021259 80 182 1.0 2.0 0.00 0.00 0.00 78 1011.8
20260904020754 80 164 3.0 4.0 0.00 0.00 0.00 79 1011.9
20260904020254 80 172 1.0 3.0 0.00 0.00 0.00 79 1011.9
20260904015753 80 176 2.0 3.0 0.00 0.00 0.00 79 1011.8
20260904015248 80 183 0.0 1.0 0.00 0.00 0.00 80 1011.9
20260904014747 80 172 2.0 3.0 0.00 0.00 0.00 80 1011.6
20260904014242 80 133 2.0 3.0 0.00 0.00 0.00 80 1011.9
20260904013738 80 172 0.0 1.0 0.00 0.00 0.00 80 1011.9
20260904013234 81 151 1.0 1.0 0.00 0.00 0.00 80 1011.8
20260904012729 81 201 1.0 1.0 0.00 0.00 0.00 80 1011.6
20260904012229 81 140 3.0 4.0 0.00 0.00 0.00 80 1011.5
20260904011728 81 181 0.0 1.0 0.00 0.00 0.00 80 1011.4
20260904011224 81 173 4.0 4.0 0.00 0.00 0.00 80 1011.5
20260904010718 82 185 1.0 1.0 0.00 0.00 0.00 80 1011.4
20260904010215 82 171 3.0 6.0 0.00 0.00 0.00 80 1011.3
20260904005710 82 154 0.0 1.0 0.00 0.00 0.00 80 1011.6
20260904005206 83 149 3.0 4.0 0.00 0.00 0.00 79 1011.4
20260904004701 83 155 1.0 2.0 0.00 0.00 0.00 78 1011.4
20260904004201 84 173 0.0 0.0 0.00 0.00 0.00 77 1011.5
20260904003651 84 206 1.0 2.0 0.00 0.00 0.00 75 1011.2
20260904003147 84 167 3.0 4.0 0.00 0.00 0.00 72 1011.5
20260904002643 85 185 2.0 3.0 0.00 0.00 0.00 71 1011.1
20260904002138 85 157 4.0 6.0 0.00 0.00 0.00 70 1011.3
20260904001633 85 102 6.0 9.0 0.00 0.00 0.00 67 1011.1
20260904001132 86 186 3.0 3.0 0.00 0.00 0.00 66 1011.1
20260904000627 86 174 5.0 8.0 0.00 0.00 0.00 65 1011.2
20260904000123 86 188 5.0 7.0 0.00 0.00 0.00 64 1011.0
20260903235623 87 147 4.0 6.0 0.00 0.00 0.00 64 1011.2
20260903235119 87 173 3.0 4.0 0.00 0.00 0.00 63 1011.2
20260903234613 87 156 3.0 6.0 0.00 0.00 0.00 62 1011.2
20260903234109 87 214 1.0 3.0 0.00 0.00 0.00 63 1011.0
20260903233605 87 178 3.0 4.0 0.00 0.00 0.00 64 1011.1
20260903233101 87 176 1.0 1.0 0.00 0.00 0.00 64 1010.9
20260903232555 88 167 3.0 7.0 0.00 0.00 0.00 64 1011.0
20260903232051 87 166 1.0 2.0 0.00 0.00 0.00 65 1011.0
20260903231545 87 136 5.0 7.0 0.00 0.00 0.00 65 1010.8
20260903231039 87 181 6.0 10.0 0.00 0.00 0.00 65 1011.0
20260903230536 87 122 4.0 4.0 0.00 0.00 0.00 66 1011.1
20260903230034 87 176 6.0 9.0 0.00 0.00 0.00 66 1010.8
20260903225532 88 165 4.0 4.0 0.00 0.00 0.00 66 1010.9
20260903225028 88 134 5.0 9.0 0.00 0.00 0.00 65 1010.8
20260903224524 87 175 3.0 6.0 0.00 0.00 0.00 66 1011.0
20260903224020 87 192 5.0 8.0 0.00 0.00 0.00 66 1010.8
20260903223519 87 161 1.0 2.0 0.00 0.00 0.00 67 1011.0
20260903223018 87 158 4.0 7.0 0.00 0.00 0.00 67 1010.9
20260903222513 87 191 4.0 8.0 0.00 0.00 0.00 67 1011.1
20260903222012 87 144 4.0 6.0 0.00 0.00 0.00 67 1011.0
20260903221508 87 162 2.0 4.0 0.00 0.00 0.00 67 1010.6
20260903221005 87 152 3.0 4.0 0.00 0.00 0.00 68 1010.9
20260903220459 87 176 0.0 0.0 0.00 0.00 0.00 68 1010.9
20260903215956 87 157 0.0 1.0 0.00 0.00 0.00 69 1010.7
20260903215453 87 185 7.0 9.0 0.00 0.00 0.00 69 1011.0
20260903214951 87 160 4.0 6.0 0.00 0.00 0.00 69 1011.0
20260903214447 88 188 4.0 7.0 0.00 0.00 0.00 69 1011.0
20260903213941 88 173 5.0 7.0 0.00 0.00 0.00 69 1010.8
20260903213437 88 197 2.0 3.0 0.00 0.00 0.00 68 1010.9
20260903212932 88 126 4.0 6.0 0.00 0.00 0.00 69 1010.9
20260903212428 87 175 4.0 4.0 0.00 0.00 0.00 70 1011.0
20260903211922 87 182 5.0 8.0 0.00 0.00 0.00 69 1011.2
20260903211418 87 175 5.0 7.0 0.00 0.00 0.00 70 1011.3
20260903210914 87 165 2.0 4.0 0.00 0.00 0.00 70 1011.2
20260903210413 87 194 8.0 10.0 0.00 0.00 0.00 70 1011.2
20260903205909 87 154 0.0 1.0 0.00 0.00 0.00 70 1011.1
20260903205409 88 160 3.0 6.0 0.00 0.00 0.00 69 1011.2
20260903204903 88 157 3.0 4.0 0.00 0.00 0.00 68 1011.2
20260903204359 87 157 3.0 3.0 0.00 0.00 0.00 69 1011.5
20260903203855 87 183 6.0 8.0 0.00 0.00 0.00 69 1011.4
20260903203350 88 169 7.0 9.0 0.00 0.00 0.00 69 1011.4
20260903202849 88 193 5.0 7.0 0.00 0.00 0.00 68 1011.5
20260903202346 88 167 2.0 3.0 0.00 0.00 0.00 69 1011.6
20260903201846 88 216 6.0 7.0 0.00 0.00 0.00 68 1011.7
20260903201341 88 196 4.0 6.0 0.00 0.00 0.00 70 1011.4
20260903200839 88 180 8.0 9.0 0.00 0.00 0.00 70 1011.8
20260903200335 88 165 4.0 7.0 0.00 0.00 0.00 70 1011.6
20260903195830 87 183 7.0 11.0 0.00 0.00 0.00 70 1011.6
20260903195326 87 158 6.0 8.0 0.00 0.00 0.00 70 1011.7
20260903194821 87 153 6.0 8.0 0.00 0.00 0.00 70 1011.6
20260903194317 87 197 5.0 6.0 0.00 0.00 0.00 71 1011.9
20260903193812 87 218 10.0 13.0 0.00 0.00 0.00 71 1011.8
20260903193308 86 201 9.0 10.0 0.00 0.00 0.00 71 1012.1
20260903192803 87 174 8.0 13.0 0.00 0.00 0.00 71 1011.8
20260903192259 87 214 5.0 8.0 0.00 0.00 0.00 71 1012.1
20260903191755 87 176 9.0 10.0 0.00 0.00 0.00 70 1011.9
20260903191250 87 157 9.0 9.0 0.00 0.00 0.00 71 1012.0
20260903190744 87 172 9.0 13.0 0.00 0.00 0.00 71 1012.4
20260903190239 86 151 7.0 10.0 0.00 0.00 0.00 73 1012.3
20260903185734 86 208 10.0 15.0 0.00 0.00 0.00 73 1012.4
20260903185233 86 201 10.0 13.0 0.00 0.00 0.00 73 1012.8
20260903184730 86 192 12.0 16.0 0.00 0.00 0.00 74 1012.7
20260903184226 86 165 5.0 8.0 0.00 0.00 0.00 74 1012.6
20260903183721 86 210 5.0 7.0 0.00 0.00 0.00 75 1012.8
20260903183215 85 190 8.0 11.0 0.00 0.00 0.00 75 1012.8
20260903182714 85 165 6.0 8.0 0.00 0.00 0.00 77 1013.0
20260903182210 84 190 9.0 14.0 0.00 0.00 0.00 76 1013.2
20260903181708 83 204 9.0 11.0 0.00 0.00 0.00 78 1013.2
20260903181203 84 190 11.0 13.0 0.00 0.00 0.00 78 1013.3
20260903180659 83 135 5.0 7.0 0.00 0.00 0.00 79 1013.3
20260903180158 83 142 9.0 13.0 0.00 0.00 0.00 79 1013.3
20260903175657 83 170 6.0 9.0 0.00 0.00 0.00 80 1013.2
20260903175151 83 136 10.0 13.0 0.00 0.00 0.00 79 1013.5
20260903174645 83 117 6.0 7.0 0.00 0.00 0.00 80 1013.6
20260903174141 82 182 5.0 7.0 0.00 0.00 0.00 80 1013.7
20260903173635 82 179 8.0 13.0 0.00 0.00 0.00 81 1013.5
20260903173132 82 232 8.0 11.0 0.00 0.00 0.00 81 1013.7
20260903172632 82 124 8.0 11.0 0.00 0.00 0.00 81 1013.6
20260903172127 82 186 9.0 13.0 0.00 0.00 0.00 82 1013.6
20260903171627 82 176 5.0 8.0 0.00 0.00 0.00 82 1013.8
20260903171123 82 195 13.0 14.0 0.00 0.00 0.00 82 1013.6
20260903170621 82 158 5.0 9.0 0.00 0.00 0.00 83 1013.9
20260903170117 82 159 7.0 10.0 0.00 0.00 0.00 83 1013.8
20260903165615 82 148 5.0 9.0 0.00 0.00 0.00 83 1013.7
20260903165110 82 181 5.0 6.0 0.00 0.00 0.00 84 1013.9
20260903164605 82 167 5.0 8.0 0.00 0.00 0.00 83 1013.8
20260903164101 83 117 5.0 9.0 0.00 0.00 0.00 82 1013.8
20260903163601 83 174 4.0 6.0 0.00 0.00 0.00 82 1013.9
20260903163057 83 197 4.0 6.0 0.00 0.00 0.00 82 1013.6
20260903162553 83 191 8.0 9.0 0.00 0.00 0.00 82 1013.7
20260903162049 83 184 2.0 2.0 0.00 0.00 0.00 82 1013.6
20260903161544 82 161 9.0 9.0 0.00 0.00 0.00 82 1013.6
20260903161040 82 200 11.0 15.0 0.00 0.00 0.00 82 1013.4
20260903160538 82 180 6.0 8.0 0.00 0.00 0.00 82 1013.5
20260903160033 82 186 7.0 10.0 0.00 0.00 0.00 83 1013.5
20260903155526 82 180 4.0 6.0 0.00 0.00 0.00 84 1013.7
20260903155022 82 170 4.0 6.0 0.00 0.00 0.00 84 1013.3
20260903154518 82 185 2.0 3.0 0.00 0.00 0.00 83 1013.5
20260903154014 82 165 3.0 6.0 0.00 0.00 0.00 83 1013.5
20260903153509 82 172 3.0 6.0 0.00 0.00 0.00 84 1013.5
20260903153005 82 176 2.0 3.0 0.00 0.00 0.00 84 1013.3
20260903152501 82 202 4.0 7.0 0.00 0.00 0.00 84 1013.4
20260903151957 82 198 6.0 7.0 0.00 0.00 0.00 85 1013.4
20260903151450 82 167 4.0 6.0 0.00 0.00 0.00 85 1013.4
20260903150946 82 106 2.0 3.0 0.00 0.00 0.00 85 1013.4
20260903150445 82 194 5.0 8.0 0.00 0.00 0.00 85 1013.5
20260903145940 82 178 4.0 4.0 0.00 0.00 0.00 84 1013.5
20260903145436 82 160 2.0 4.0 0.00 0.00 0.00 84 1013.2
20260903144931 82 160 6.0 8.0 0.00 0.00 0.00 84 1013.4
20260903144430 82 211 4.0 9.0 0.00 0.00 0.00 84 1013.4
20260903143926 82 160 7.0 9.0 0.00 0.00 0.00 84 1013.4
20260903143422 82 201 8.0 10.0 0.00 0.00 0.00 84 1013.2
20260903142917 82 196 3.0 4.0 0.00 0.00 0.00 85 1013.0
20260903142413 81 189 7.0 9.0 0.00 0.00 0.00 85 1013.2
20260903141908 81 189 5.0 6.0 0.00 0.00 0.00 85 1013.3
20260903141358 81 174 4.0 4.0 0.00 0.00 0.00 86 1013.3
20260903140854 80 194 5.0 9.0 0.00 0.00 0.00 86 1013.3
20260903140349 80 154 4.0 4.0 0.00 0.00 0.00 86 1013.5
20260903135844 80 177 4.0 6.0 0.00 0.00 0.00 87 1013.4